owner,sensor,date,latitude,longitude,vertical_datum,sea_water_practical_salinity,qcFlag 
NERRS,ioos:station:NOAA.NERRS:rkblhwq:1,2015-08-01T00:45:00Z,26.0257,-81.7332,0.95,27.0,1111122 
NERRS,ioos:station:NOAA.NERRS:rkblhwq:1,2015-08-01T01:45:00Z,26.0257,-81.7332,0.88,26.0,1111122 
NERRS,ioos:station:NOAA.NERRS:rkblhwq:1,2015-08-01T02:45:00Z,26.0257,-81.7332,0.97,25.1,1111122 
NERRS,ioos:station:NOAA.NERRS:rkblhwq:1,2015-08-01T03:45:00Z,26.0257,-81.7332,1.13,26.1,1111122 
NERRS,ioos:station:NOAA.NERRS:rkblhwq:1,2015-08-01T04:45:00Z,26.0257,-81.7332,1.31,27.4,1111122 
NERRS,ioos:station:NOAA.NERRS:rkblhwq:1,2015-08-01T05:45:00Z,26.0257,-81.7332,1.49,28.2,1111122 
NERRS,ioos:station:NOAA.NERRS:rkblhwq:1,2015-08-01T07:45:00Z,26.0257,-81.7332,1.64,28.7,1111122 
NERRS,ioos:station:NOAA.NERRS:rkblhwq:1,2015-08-01T08:45:00Z,26.0257,-81.7332,1.56,28.3,1111122 
NERRS,ioos:station:NOAA.NERRS:rkblhwq:1,2015-08-01T10:45:00Z,26.0257,-81.7332,1.3,28.5,1111122 
NERRS,ioos:station:NOAA.NERRS:rkblhwq:1,2015-08-01T12:45:00Z,26.0257,-81.7332,1.1,28.3,1111122 
NERRS,ioos:station:NOAA.NERRS:rkblhwq:1,2015-08-01T13:45:00Z,26.0257,-81.7332,1.17,26.8,1111122 
NERRS,ioos:station:NOAA.NERRS:rkblhwq:1,2015-08-01T14:45:00Z,26.0257,-81.7332,1.34,26.7,1111122 
NERRS,ioos:station:NOAA.NERRS:rkblhwq:1,2015-08-01T16:45:00Z,26.0257,-81.7332,1.68,28.4,1111122 
NERRS,ioos:station:NOAA.NERRS:rkblhwq:1,2015-08-01T17:45:00Z,26.0257,-81.7332,1.79,29.2,1111122 
NERRS,ioos:station:NOAA.NERRS:rkblhwq:1,2015-08-01T18:45:00Z,26.0257,-81.7332,1.85,29.4,1111122 
NERRS,ioos:station:NOAA.NERRS:rkblhwq:1,2015-08-01T19:45:00Z,26.0257,-81.7332,1.83,29.6,1111122 
NERRS,ioos:station:NOAA.NERRS:rkblhwq:1,2015-08-01T20:45:00Z,26.0257,-81.7332,1.73,29.5,1111122 
NERRS,ioos:station:NOAA.NERRS:rkblhwq:1,2015-08-01T21:45:00Z,26.0257,-81.7332,1.6,29.2,1111122 
NERRS,ioos:station:NOAA.NERRS:rkblhwq:1,2015-08-01T22:45:00Z,26.0257,-81.7332,1.43,28.4,1111122 
NERRS,ioos:station:NOAA.NERRS:rkblhwq:1,2015-08-01T23:45:00Z,26.0257,-81.7332,1.25,27.5,1111122 
NERRS,ioos:station:NOAA.NERRS:rkblhwq:1,2015-08-02T00:45:00Z,26.0257,-81.7332,1.08,27.2,1111122 
NERRS,ioos:station:NOAA.NERRS:rkblhwq:1,2015-08-02T01:45:00Z,26.0257,-81.7332,0.95,26.2,1111122 
NERRS,ioos:station:NOAA.NERRS:rkblhwq:1,2015-08-02T02:45:00Z,26.0257,-81.7332,0.92,27.1,1111122 
NERRS,ioos:station:NOAA.NERRS:rkblhwq:1,2015-08-02T03:45:00Z,26.0257,-81.7332,1.06,26.2,1111122 
NERRS,ioos:station:NOAA.NERRS:rkblhwq:1,2015-08-02T04:45:00Z,26.0257,-81.7332,1.22,27.1,1111122 
NERRS,ioos:station:NOAA.NERRS:rkblhwq:1,2015-08-02T05:45:00Z,26.0257,-81.7332,1.39,28.0,1111122 
NERRS,ioos:station:NOAA.NERRS:rkblhwq:1,2015-08-02T07:45:00Z,26.0257,-81.7332,1.64,29.1,1111122 
NERRS,ioos:station:NOAA.NERRS:rkblhwq:1,2015-08-02T08:45:00Z,26.0257,-81.7332,1.62,29.2,1111122 
NERRS,ioos:station:NOAA.NERRS:rkblhwq:1,2015-08-02T09:45:00Z,26.0257,-81.7332,1.51,29.1,1111122 
NERRS,ioos:station:NOAA.NERRS:rkblhwq:1,2015-08-02T10:45:00Z,26.0257,-81.7332,1.38,29.0,1111122 
NERRS,ioos:station:NOAA.NERRS:rkblhwq:1,2015-08-02T11:45:00Z,26.0257,-81.7332,1.25,28.9,1111122 
NERRS,ioos:station:NOAA.NERRS:rkblhwq:1,2015-08-03T03:45:00Z,26.0257,-81.7332,0.97,26.2,1111122 
NERRS,ioos:station:NOAA.NERRS:rkblhwq:1,2015-08-03T04:45:00Z,26.0257,-81.7332,1.11,27.2,1111122 
NERRS,ioos:station:NOAA.NERRS:rkblhwq:1,2015-08-03T05:45:00Z,26.0257,-81.7332,1.28,28.1,1111122 
NERRS,ioos:station:NOAA.NERRS:rkblhwq:1,2015-08-04T03:45:00Z,26.0257,-81.7332,0.9,28.9,1111122 
NERRS,ioos:station:NOAA.NERRS:rkblhwq:1,2015-08-04T04:45:00Z,26.0257,-81.7332,1.0,27.2,1111122 
NERRS,ioos:station:NOAA.NERRS:rkblhwq:1,2015-08-04T05:45:00Z,26.0257,-81.7332,1.15,27.7,1111122 
NERRS,ioos:station:NOAA.NERRS:rkblhwq:1,2015-08-04T07:45:00Z,26.0257,-81.7332,1.5,29.0,1111122 
NERRS,ioos:station:NOAA.NERRS:rkblhwq:1,2015-08-04T08:45:00Z,26.0257,-81.7332,1.63,29.2,1111122 
NERRS,ioos:station:NOAA.NERRS:rkblhwq:1,2015-08-04T09:45:00Z,26.0257,-81.7332,1.68,29.9,1111122 
NERRS,ioos:station:NOAA.NERRS:rkblhwq:1,2015-08-04T10:45:00Z,26.0257,-81.7332,1.59,29.6,1111122 
NERRS,ioos:station:NOAA.NERRS:rkblhwq:1,2015-08-04T11:45:00Z,26.0257,-81.7332,1.46,29.3,1111122 
NERRS,ioos:station:NOAA.NERRS:rkblhwq:1,2015-08-04T12:45:00Z,26.0257,-81.7332,1.33,29.3,1111122 
NERRS,ioos:station:NOAA.NERRS:rkblhwq:1,2015-08-04T13:45:00Z,26.0257,-81.7332,1.2,29.0,1111122 
NERRS,ioos:station:NOAA.NERRS:rkblhwq:1,2015-08-04T14:45:00Z,26.0257,-81.7332,1.09,28.2,1111122 
NERRS,ioos:station:NOAA.NERRS:rkblhwq:1,2015-08-04T19:45:00Z,26.0257,-81.7332,1.56,29.5,1111122 
NERRS,ioos:station:NOAA.NERRS:rkblhwq:1,2015-08-04T20:45:00Z,26.0257,-81.7332,1.66,29.7,1111122 
NERRS,ioos:station:NOAA.NERRS:rkblhwq:1,2015-08-04T22:45:00Z,26.0257,-81.7332,1.64,30.0,1111122 
NERRS,ioos:station:NOAA.NERRS:rkblhwq:1,2015-08-04T23:45:00Z,26.0257,-81.7332,1.52,29.7,1111122 
NERRS,ioos:station:NOAA.NERRS:rkblhwq:1,2015-08-05T00:45:00Z,26.0257,-81.7332,1.39,29.7,1111122 
NERRS,ioos:station:NOAA.NERRS:rkblhwq:1,2015-08-05T01:45:00Z,26.0257,-81.7332,1.25,29.5,1111122 
NERRS,ioos:station:NOAA.NERRS:rkblhwq:1,2015-08-05T02:45:00Z,26.0257,-81.7332,1.13,29.5,1111122 
NERRS,ioos:station:NOAA.NERRS:rkblhwq:1,2015-08-05T03:45:00Z,26.0257,-81.7332,1.03,29.4,1111122 
NERRS,ioos:station:NOAA.NERRS:rkblhwq:1,2015-08-05T04:45:00Z,26.0257,-81.7332,1.03,28.2,1111122 
NERRS,ioos:station:NOAA.NERRS:rkblhwq:1,2015-08-05T05:45:00Z,26.0257,-81.7332,1.15,28.4,1111122 
NERRS,ioos:station:NOAA.NERRS:rkblhwq:1,2015-08-05T06:45:00Z,26.0257,-81.7332,1.3,28.8,1111122 
NERRS,ioos:station:NOAA.NERRS:rkblhwq:1,2015-08-05T07:45:00Z,26.0257,-81.7332,1.46,29.5,1111122 
NERRS,ioos:station:NOAA.NERRS:rkblhwq:1,2015-08-05T08:45:00Z,26.0257,-81.7332,1.61,29.8,1111122 
NERRS,ioos:station:NOAA.NERRS:rkblhwq:1,2015-08-05T09:45:00Z,26.0257,-81.7332,1.7,30.2,1111122 
NERRS,ioos:station:NOAA.NERRS:rkblhwq:1,2015-08-05T10:45:00Z,26.0257,-81.7332,1.71,30.0,1111122 
NERRS,ioos:station:NOAA.NERRS:rkblhwq:1,2015-08-05T12:45:00Z,26.0257,-81.7332,1.47,29.9,1111122 
NERRS,ioos:station:NOAA.NERRS:rkblhwq:1,2015-08-05T13:45:00Z,26.0257,-81.7332,1.33,28.6,1111122 
NERRS,ioos:station:NOAA.NERRS:rkblhwq:1,2015-08-05T15:45:00Z,26.0257,-81.7332,1.08,27.8,1111122 
NERRS,ioos:station:NOAA.NERRS:rkblhwq:1,2015-08-05T17:45:00Z,26.0257,-81.7332,1.07,28.0,1111122 
NERRS,ioos:station:NOAA.NERRS:rkblhwq:1,2015-08-05T18:45:00Z,26.0257,-81.7332,1.2,28.6,1111122 
NERRS,ioos:station:NOAA.NERRS:rkblhwq:1,2015-08-05T19:45:00Z,26.0257,-81.7332,1.34,29.0,1111122 
NERRS,ioos:station:NOAA.NERRS:rkblhwq:1,2015-08-05T20:45:00Z,26.0257,-81.7332,1.47,29.5,1111122 
NERRS,ioos:station:NOAA.NERRS:rkblhwq:1,2015-08-05T21:45:00Z,26.0257,-81.7332,1.57,30.0,1111122 
NERRS,ioos:station:NOAA.NERRS:rkblhwq:1,2015-08-05T22:45:00Z,26.0257,-81.7332,1.63,30.3,1111122 
NERRS,ioos:station:NOAA.NERRS:rkblhwq:1,2015-08-05T23:45:00Z,26.0257,-81.7332,1.56,29.9,1111122 
NERRS,ioos:station:NOAA.NERRS:rkblhwq:1,2015-08-06T00:45:00Z,26.0257,-81.7332,1.46,29.5,1111122 
NERRS,ioos:station:NOAA.NERRS:rkblhwq:1,2015-08-06T01:45:00Z,26.0257,-81.7332,1.34,29.4,1111122 
NERRS,ioos:station:NOAA.NERRS:rkblhwq:1,2015-08-06T02:45:00Z,26.0257,-81.7332,1.23,29.1,1111122 
NERRS,ioos:station:NOAA.NERRS:rkblhwq:1,2015-08-06T03:45:00Z,26.0257,-81.7332,1.13,28.8,1111122 
NERRS,ioos:station:NOAA.NERRS:rkblhwq:1,2015-08-06T04:45:00Z,26.0257,-81.7332,1.07,28.1,1111122 
NERRS,ioos:station:NOAA.NERRS:rkblhwq:1,2015-08-06T05:45:00Z,26.0257,-81.7332,1.13,28.7,1111122 
NERRS,ioos:station:NOAA.NERRS:rkblhwq:1,2015-08-06T07:45:00Z,26.0257,-81.7332,1.39,29.2,1111122 
NERRS,ioos:station:NOAA.NERRS:rkblhwq:1,2015-08-06T08:45:00Z,26.0257,-81.7332,1.53,29.8,1111122 
NERRS,ioos:station:NOAA.NERRS:rkblhwq:1,2015-08-06T10:45:00Z,26.0257,-81.7332,1.7,30.5,1111122 
NERRS,ioos:station:NOAA.NERRS:rkblhwq:1,2015-08-06T11:45:00Z,26.0257,-81.7332,1.65,30.1,1111122 
NERRS,ioos:station:NOAA.NERRS:rkblhwq:1,2015-08-06T12:45:00Z,26.0257,-81.7332,1.55,30.3,1111122 
NERRS,ioos:station:NOAA.NERRS:rkblhwq:1,2015-08-06T13:45:00Z,26.0257,-81.7332,1.43,30.1,1111122 
NERRS,ioos:station:NOAA.NERRS:rkblhwq:1,2015-08-06T14:45:00Z,26.0257,-81.7332,1.31,29.5,1111122 
NERRS,ioos:station:NOAA.NERRS:rkblhwq:1,2015-08-06T15:45:00Z,26.0257,-81.7332,1.18,29.4,1111122 
NERRS,ioos:station:NOAA.NERRS:rkblhwq:1,2015-08-06T16:45:00Z,26.0257,-81.7332,1.06,29.5,1111122 
NERRS,ioos:station:NOAA.NERRS:rkblhwq:1,2015-08-06T17:45:00Z,26.0257,-81.7332,1.0,29.1,1111122 
NERRS,ioos:station:NOAA.NERRS:rkblhwq:1,2015-08-06T19:45:00Z,26.0257,-81.7332,1.16,29.2,1111122 
NERRS,ioos:station:NOAA.NERRS:rkblhwq:1,2015-08-06T20:45:00Z,26.0257,-81.7332,1.28,29.4,1111122 
NERRS,ioos:station:NOAA.NERRS:rkblhwq:1,2015-08-06T22:45:00Z,26.0257,-81.7332,1.49,29.9,1111122 
NERRS,ioos:station:NOAA.NERRS:rkblhwq:1,2015-08-06T23:45:00Z,26.0257,-81.7332,1.56,30.3,1111122 
NERRS,ioos:station:NOAA.NERRS:rkblhwq:1,2015-08-07T05:45:00Z,26.0257,-81.7332,1.19,29.6,1111122 
NERRS,ioos:station:NOAA.NERRS:rkblhwq:1,2015-08-07T07:45:00Z,26.0257,-81.7332,1.36,29.6,1111122 
NERRS,ioos:station:NOAA.NERRS:rkblhwq:1,2015-08-07T10:45:00Z,26.0257,-81.7332,1.69,30.7,1111122 
NERRS,ioos:station:NOAA.NERRS:rkblhwq:1,2015-08-07T11:45:00Z,26.0257,-81.7332,1.73,30.9,1111122 
NERRS,ioos:station:NOAA.NERRS:rkblhwq:1,2015-08-07T12:45:00Z,26.0257,-81.7332,1.7,30.4,1111122 
NERRS,ioos:station:NOAA.NERRS:rkblhwq:1,2015-08-07T13:45:00Z,26.0257,-81.7332,1.61,30.7,1111122 
NERRS,ioos:station:NOAA.NERRS:rkblhwq:1,2015-08-07T14:45:00Z,26.0257,-81.7332,1.51,30.5,1111122 
NERRS,ioos:station:NOAA.NERRS:rkblhwq:1,2015-08-07T15:45:00Z,26.0257,-81.7332,1.38,30.3,1111122 
NERRS,ioos:station:NOAA.NERRS:rkblhwq:1,2015-08-07T16:45:00Z,26.0257,-81.7332,1.23,29.8,1111122 
NERRS,ioos:station:NOAA.NERRS:rkblhwq:1,2015-08-07T17:45:00Z,26.0257,-81.7332,1.1,29.2,1111122 
NERRS,ioos:station:NOAA.NERRS:rkblhwq:1,2015-08-07T18:45:00Z,26.0257,-81.7332,0.99,29.1,1111122 
NERRS,ioos:station:NOAA.NERRS:rkblhwq:1,2015-08-07T19:45:00Z,26.0257,-81.7332,0.97,29.6,1111122 
NERRS,ioos:station:NOAA.NERRS:rkblhwq:1,2015-08-07T20:45:00Z,26.0257,-81.7332,1.07,29.5,1111122 
NERRS,ioos:station:NOAA.NERRS:rkblhwq:1,2015-08-07T21:45:00Z,26.0257,-81.7332,1.18,29.7,1111122 
NERRS,ioos:station:NOAA.NERRS:rkblhwq:1,2015-08-07T22:45:00Z,26.0257,-81.7332,1.29,30.0,1111122 
NERRS,ioos:station:NOAA.NERRS:rkblhwq:1,2015-08-07T23:45:00Z,26.0257,-81.7332,1.39,30.2,1111122 
NERRS,ioos:station:NOAA.NERRS:rkblhwq:1,2015-08-08T00:45:00Z,26.0257,-81.7332,1.47,30.4,1111122 
NERRS,ioos:station:NOAA.NERRS:rkblhwq:1,2015-08-08T01:45:00Z,26.0257,-81.7332,1.48,30.4,1111122 
NERRS,ioos:station:NOAA.NERRS:rkblhwq:1,2015-08-08T02:45:00Z,26.0257,-81.7332,1.45,30.3,1111122 
NERRS,ioos:station:NOAA.NERRS:rkblhwq:1,2015-08-08T03:45:00Z,26.0257,-81.7332,1.39,30.0,1111122 
NERRS,ioos:station:NOAA.NERRS:rkblhwq:1,2015-08-08T05:45:00Z,26.0257,-81.7332,1.23,29.8,1111122 
NERRS,ioos:station:NOAA.NERRS:rkblhwq:1,2015-08-08T06:45:00Z,26.0257,-81.7332,1.17,29.5,1111122 
NERRS,ioos:station:NOAA.NERRS:rkblhwq:1,2015-08-08T07:45:00Z,26.0257,-81.7332,1.2,29.2,1111122 
NERRS,ioos:station:NOAA.NERRS:rkblhwq:1,2015-08-08T08:45:00Z,26.0257,-81.7332,1.32,29.7,1111122 
NERRS,ioos:station:NOAA.NERRS:rkblhwq:1,2015-08-08T09:45:00Z,26.0257,-81.7332,1.44,30.2,1111122 
NERRS,ioos:station:NOAA.NERRS:rkblhwq:1,2015-08-08T10:45:00Z,26.0257,-81.7332,1.57,30.3,1111122 
NERRS,ioos:station:NOAA.NERRS:rkblhwq:1,2015-08-08T11:45:00Z,26.0257,-81.7332,1.68,30.5,1111122 
NERRS,ioos:station:NOAA.NERRS:rkblhwq:1,2015-08-08T12:45:00Z,26.0257,-81.7332,1.73,30.8,1111122 
NERRS,ioos:station:NOAA.NERRS:rkblhwq:1,2015-08-08T13:45:00Z,26.0257,-81.7332,1.7,30.7,1111122 
NERRS,ioos:station:NOAA.NERRS:rkblhwq:1,2015-08-08T14:45:00Z,26.0257,-81.7332,1.61,30.7,1111122 
NERRS,ioos:station:NOAA.NERRS:rkblhwq:1,2015-08-08T15:45:00Z,26.0257,-81.7332,1.49,30.4,1111122 
NERRS,ioos:station:NOAA.NERRS:rkblhwq:1,2015-08-08T16:45:00Z,26.0257,-81.7332,1.35,29.9,1111122 
NERRS,ioos:station:NOAA.NERRS:rkblhwq:1,2015-08-08T17:45:00Z,26.0257,-81.7332,1.2,29.5,1111122 
NERRS,ioos:station:NOAA.NERRS:rkblhwq:1,2015-08-08T18:45:00Z,26.0257,-81.7332,1.09,29.5,1111122 
NERRS,ioos:station:NOAA.NERRS:rkblhwq:1,2015-08-08T19:45:00Z,26.0257,-81.7332,0.98,29.4,1111122 
NERRS,ioos:station:NOAA.NERRS:rkblhwq:1,2015-08-08T20:45:00Z,26.0257,-81.7332,0.95,29.5,1111122 
NERRS,ioos:station:NOAA.NERRS:rkblhwq:1,2015-08-08T21:45:00Z,26.0257,-81.7332,1.04,29.6,1111122 
NERRS,ioos:station:NOAA.NERRS:rkblhwq:1,2015-08-08T22:45:00Z,26.0257,-81.7332,1.15,29.8,1111122 
NERRS,ioos:station:NOAA.NERRS:rkblhwq:1,2015-08-08T23:45:00Z,26.0257,-81.7332,1.27,30.1,1111122 
NERRS,ioos:station:NOAA.NERRS:rkblhwq:1,2015-08-09T00:45:00Z,26.0257,-81.7332,1.32,30.4,1111122 
NERRS,ioos:station:NOAA.NERRS:rkblhwq:1,2015-08-09T01:45:00Z,26.0257,-81.7332,1.43,30.4,1111122 
NERRS,ioos:station:NOAA.NERRS:rkblhwq:1,2015-08-09T02:45:00Z,26.0257,-81.7332,1.53,30.6,1111122 
NERRS,ioos:station:NOAA.NERRS:rkblhwq:1,2015-08-09T03:45:00Z,26.0257,-81.7332,1.54,30.4,1111122 
NERRS,ioos:station:NOAA.NERRS:rkblhwq:1,2015-08-09T04:45:00Z,26.0257,-81.7332,1.45,30.2,1111122 
NERRS,ioos:station:NOAA.NERRS:rkblhwq:1,2015-08-09T05:45:00Z,26.0257,-81.7332,1.36,30.0,1111122 
NERRS,ioos:station:NOAA.NERRS:rkblhwq:1,2015-08-09T06:45:00Z,26.0257,-81.7332,1.29,29.7,1111122 
NERRS,ioos:station:NOAA.NERRS:rkblhwq:1,2015-08-09T07:45:00Z,26.0257,-81.7332,1.23,30.0,1111122 
NERRS,ioos:station:NOAA.NERRS:rkblhwq:1,2015-08-09T08:45:00Z,26.0257,-81.7332,1.27,29.4,1111122 
NERRS,ioos:station:NOAA.NERRS:rkblhwq:1,2015-08-09T09:45:00Z,26.0257,-81.7332,1.38,30.2,1111122 
NERRS,ioos:station:NOAA.NERRS:rkblhwq:1,2015-08-09T10:45:00Z,26.0257,-81.7332,1.48,30.4,1111122 
NERRS,ioos:station:NOAA.NERRS:rkblhwq:1,2015-08-09T11:45:00Z,26.0257,-81.7332,1.58,30.7,1111122 
NERRS,ioos:station:NOAA.NERRS:rkblhwq:1,2015-08-09T12:45:00Z,26.0257,-81.7332,1.67,31.0,1111122 
NERRS,ioos:station:NOAA.NERRS:rkblhwq:1,2015-08-09T13:45:00Z,26.0257,-81.7332,1.72,31.2,1111122 
NERRS,ioos:station:NOAA.NERRS:rkblhwq:1,2015-08-09T14:45:00Z,26.0257,-81.7332,1.71,31.2,1111122 
NERRS,ioos:station:NOAA.NERRS:rkblhwq:1,2015-08-09T15:45:00Z,26.0257,-81.7332,1.63,31.1,1111122 
NERRS,ioos:station:NOAA.NERRS:rkblhwq:1,2015-08-09T16:45:00Z,26.0257,-81.7332,1.51,30.7,1111122 
NERRS,ioos:station:NOAA.NERRS:rkblhwq:1,2015-08-09T17:45:00Z,26.0257,-81.7332,1.37,30.5,1111122 
NERRS,ioos:station:NOAA.NERRS:rkblhwq:1,2015-08-09T18:45:00Z,26.0257,-81.7332,1.22,30.0,1111122 
NERRS,ioos:station:NOAA.NERRS:rkblhwq:1,2015-08-09T19:45:00Z,26.0257,-81.7332,1.08,29.7,1111122 
NERRS,ioos:station:NOAA.NERRS:rkblhwq:1,2015-08-09T20:45:00Z,26.0257,-81.7332,0.96,29.7,1111122 
NERRS,ioos:station:NOAA.NERRS:rkblhwq:1,2015-08-09T21:45:00Z,26.0257,-81.7332,0.93,29.9,1111122 
NERRS,ioos:station:NOAA.NERRS:rkblhwq:1,2015-08-09T22:45:00Z,26.0257,-81.7332,1.01,29.7,1111122 
NERRS,ioos:station:NOAA.NERRS:rkblhwq:1,2015-08-09T23:45:00Z,26.0257,-81.7332,1.11,29.9,1111122 
NERRS,ioos:station:NOAA.NERRS:rkblhwq:1,2015-08-10T00:45:00Z,26.0257,-81.7332,1.25,30.3,1111122 
NERRS,ioos:station:NOAA.NERRS:rkblhwq:1,2015-08-10T01:45:00Z,26.0257,-81.7332,1.38,30.7,1111122 
NERRS,ioos:station:NOAA.NERRS:rkblhwq:1,2015-08-10T02:45:00Z,26.0257,-81.7332,1.51,30.9,1111122 
NERRS,ioos:station:NOAA.NERRS:rkblhwq:1,2015-08-10T03:45:00Z,26.0257,-81.7332,1.59,31.1,1111122 
NERRS,ioos:station:NOAA.NERRS:rkblhwq:1,2015-08-10T04:45:00Z,26.0257,-81.7332,1.56,30.6,1111122 
NERRS,ioos:station:NOAA.NERRS:rkblhwq:1,2015-08-10T05:45:00Z,26.0257,-81.7332,1.5,30.7,1111122 
NERRS,ioos:station:NOAA.NERRS:rkblhwq:1,2015-08-10T06:45:00Z,26.0257,-81.7332,1.4,30.5,1111122 
NERRS,ioos:station:NOAA.NERRS:rkblhwq:1,2015-08-10T07:45:00Z,26.0257,-81.7332,1.31,30.2,1111122 
NERRS,ioos:station:NOAA.NERRS:rkblhwq:1,2015-08-10T08:45:00Z,26.0257,-81.7332,1.24,30.2,1111122 
NERRS,ioos:station:NOAA.NERRS:rkblhwq:1,2015-08-10T09:45:00Z,26.0257,-81.7332,1.29,30.0,1111122 
NERRS,ioos:station:NOAA.NERRS:rkblhwq:1,2015-08-10T10:45:00Z,26.0257,-81.7332,1.39,30.6,1111122 
NERRS,ioos:station:NOAA.NERRS:rkblhwq:1,2015-08-10T11:45:00Z,26.0257,-81.7332,1.5,30.6,1111122 
NERRS,ioos:station:NOAA.NERRS:rkblhwq:1,2015-08-10T12:45:00Z,26.0257,-81.7332,1.6,30.8,1111122 
NERRS,ioos:station:NOAA.NERRS:rkblhwq:1,2015-08-10T13:45:00Z,26.0257,-81.7332,1.7,31.4,1111122 
NERRS,ioos:station:NOAA.NERRS:rkblhwq:1,2015-08-10T14:45:00Z,26.0257,-81.7332,1.76,31.6,1111122 
NERRS,ioos:station:NOAA.NERRS:rkblhwq:1,2015-08-10T15:45:00Z,26.0257,-81.7332,1.77,31.8,1111122 
NERRS,ioos:station:NOAA.NERRS:rkblhwq:1,2015-08-10T16:45:00Z,26.0257,-81.7332,1.71,31.6,1111122 
NERRS,ioos:station:NOAA.NERRS:rkblhwq:1,2015-08-10T17:45:00Z,26.0257,-81.7332,1.59,31.3,1111122 
NERRS,ioos:station:NOAA.NERRS:rkblhwq:1,2015-08-10T18:45:00Z,26.0257,-81.7332,1.45,31.0,1111122 
NERRS,ioos:station:NOAA.NERRS:rkblhwq:1,2015-08-10T19:45:00Z,26.0257,-81.7332,1.28,30.1,1111122 
NERRS,ioos:station:NOAA.NERRS:rkblhwq:1,2015-08-10T20:45:00Z,26.0257,-81.7332,1.13,29.8,1111122 
NERRS,ioos:station:NOAA.NERRS:rkblhwq:1,2015-08-10T22:45:00Z,26.0257,-81.7332,0.92,29.7,1111122 
NERRS,ioos:station:NOAA.NERRS:rkblhwq:1,2015-08-10T23:45:00Z,26.0257,-81.7332,1.0,29.5,1111122 
NERRS,ioos:station:NOAA.NERRS:rkblhwq:1,2015-08-11T00:45:00Z,26.0257,-81.7332,1.13,30.1,1111122 
NERRS,ioos:station:NOAA.NERRS:rkblhwq:1,2015-08-11T01:45:00Z,26.0257,-81.7332,1.27,30.4,1111122 
NERRS,ioos:station:NOAA.NERRS:rkblhwq:1,2015-08-11T02:45:00Z,26.0257,-81.7332,1.41,30.9,1111122 
NERRS,ioos:station:NOAA.NERRS:rkblhwq:1,2015-08-11T03:45:00Z,26.0257,-81.7332,1.54,31.1,1111122 
NERRS,ioos:station:NOAA.NERRS:rkblhwq:1,2015-08-11T04:45:00Z,26.0257,-81.7332,1.63,31.4,1111122 
NERRS,ioos:station:NOAA.NERRS:rkblhwq:1,2015-08-11T05:45:00Z,26.0257,-81.7332,1.61,31.2,1111122 
NERRS,ioos:station:NOAA.NERRS:rkblhwq:1,2015-08-11T06:45:00Z,26.0257,-81.7332,1.51,31.1,1111122 
NERRS,ioos:station:NOAA.NERRS:rkblhwq:1,2015-08-11T07:45:00Z,26.0257,-81.7332,1.41,30.8,1111122 
NERRS,ioos:station:NOAA.NERRS:rkblhwq:1,2015-08-11T08:45:00Z,26.0257,-81.7332,1.32,31.1,1111122 
NERRS,ioos:station:NOAA.NERRS:rkblhwq:1,2015-08-11T09:45:00Z,26.0257,-81.7332,1.25,30.8,1111122 
NERRS,ioos:station:NOAA.NERRS:rkblhwq:1,2015-08-11T10:45:00Z,26.0257,-81.7332,1.29,29.9,1111122 
NERRS,ioos:station:NOAA.NERRS:rkblhwq:1,2015-08-11T11:45:00Z,26.0257,-81.7332,1.41,30.7,1111122 
NERRS,ioos:station:NOAA.NERRS:rkblhwq:1,2015-08-11T12:45:00Z,26.0257,-81.7332,1.52,30.6,1111122 
NERRS,ioos:station:NOAA.NERRS:rkblhwq:1,2015-08-11T13:45:00Z,26.0257,-81.7332,1.63,31.1,1111122 
NERRS,ioos:station:NOAA.NERRS:rkblhwq:1,2015-08-11T14:45:00Z,26.0257,-81.7332,1.74,31.2,1111122 
NERRS,ioos:station:NOAA.NERRS:rkblhwq:1,2015-08-11T16:45:00Z,26.0257,-81.7332,1.79,31.6,1111122 
NERRS,ioos:station:NOAA.NERRS:rkblhwq:1,2015-08-11T17:45:00Z,26.0257,-81.7332,1.7,31.5,1111122 
NERRS,ioos:station:NOAA.NERRS:rkblhwq:1,2015-08-11T18:45:00Z,26.0257,-81.7332,1.58,31.3,1111122 
NERRS,ioos:station:NOAA.NERRS:rkblhwq:1,2015-08-11T19:45:00Z,26.0257,-81.7332,1.42,30.9,1111122 
NERRS,ioos:station:NOAA.NERRS:rkblhwq:1,2015-08-11T20:45:00Z,26.0257,-81.7332,1.25,30.2,1111122 
NERRS,ioos:station:NOAA.NERRS:rkblhwq:1,2015-08-11T21:45:00Z,26.0257,-81.7332,1.1,29.7,1111122 
NERRS,ioos:station:NOAA.NERRS:rkblhwq:1,2015-08-11T22:45:00Z,26.0257,-81.7332,0.97,29.6,1111122 
NERRS,ioos:station:NOAA.NERRS:rkblhwq:1,2015-08-11T23:45:00Z,26.0257,-81.7332,0.91,29.9,1111122 
NERRS,ioos:station:NOAA.NERRS:rkblhwq:1,2015-08-12T00:45:00Z,26.0257,-81.7332,1.0,29.9,1111122 
NERRS,ioos:station:NOAA.NERRS:rkblhwq:1,2015-08-12T01:45:00Z,26.0257,-81.7332,1.13,30.3,1111122 
NERRS,ioos:station:NOAA.NERRS:rkblhwq:1,2015-08-12T02:45:00Z,26.0257,-81.7332,1.29,30.8,1111122 
NERRS,ioos:station:NOAA.NERRS:rkblhwq:1,2015-08-12T03:45:00Z,26.0257,-81.7332,1.45,30.9,1111122 
NERRS,ioos:station:NOAA.NERRS:rkblhwq:1,2015-08-12T04:45:00Z,26.0257,-81.7332,1.58,31.1,1111122 
NERRS,ioos:station:NOAA.NERRS:rkblhwq:1,2015-08-12T05:45:00Z,26.0257,-81.7332,1.65,31.3,1111122 
NERRS,ioos:station:NOAA.NERRS:rkblhwq:1,2015-08-12T07:45:00Z,26.0257,-81.7332,1.5,30.7,1111122 
NERRS,ioos:station:NOAA.NERRS:rkblhwq:1,2015-08-12T08:45:00Z,26.0257,-81.7332,1.39,30.7,1111122 
NERRS,ioos:station:NOAA.NERRS:rkblhwq:1,2015-08-12T09:45:00Z,26.0257,-81.7332,1.28,30.9,1111122 
NERRS,ioos:station:NOAA.NERRS:rkblhwq:1,2015-08-12T10:45:00Z,26.0257,-81.7332,1.23,30.6,1111122 
NERRS,ioos:station:NOAA.NERRS:rkblhwq:1,2015-08-12T11:45:00Z,26.0257,-81.7332,1.28,30.0,1111122 
NERRS,ioos:station:NOAA.NERRS:rkblhwq:1,2015-08-12T12:45:00Z,26.0257,-81.7332,1.4,30.6,1111122 
NERRS,ioos:station:NOAA.NERRS:rkblhwq:1,2015-08-12T13:45:00Z,26.0257,-81.7332,1.54,30.8,1111122 
NERRS,ioos:station:NOAA.NERRS:rkblhwq:1,2015-08-12T14:45:00Z,26.0257,-81.7332,1.67,31.1,1111122 
NERRS,ioos:station:NOAA.NERRS:rkblhwq:1,2015-08-12T15:45:00Z,26.0257,-81.7332,1.77,31.3,1111122 
NERRS,ioos:station:NOAA.NERRS:rkblhwq:1,2015-08-12T16:45:00Z,26.0257,-81.7332,1.82,31.6,1111122 
NERRS,ioos:station:NOAA.NERRS:rkblhwq:1,2015-08-12T17:45:00Z,26.0257,-81.7332,1.77,31.4,1111122 
NERRS,ioos:station:NOAA.NERRS:rkblhwq:1,2015-08-12T18:45:00Z,26.0257,-81.7332,1.67,31.7,1111122 
NERRS,ioos:station:NOAA.NERRS:rkblhwq:1,2015-08-12T19:45:00Z,26.0257,-81.7332,1.54,31.4,1111122 
NERRS,ioos:station:NOAA.NERRS:rkblhwq:1,2015-08-12T21:45:00Z,26.0257,-81.7332,1.21,30.6,1111122 
NERRS,ioos:station:NOAA.NERRS:rkblhwq:1,2015-08-12T22:45:00Z,26.0257,-81.7332,1.06,30.3,1111122 
NERRS,ioos:station:NOAA.NERRS:rkblhwq:1,2015-08-12T23:45:00Z,26.0257,-81.7332,0.94,30.3,1111122 
NERRS,ioos:station:NOAA.NERRS:rkblhwq:1,2015-08-13T00:45:00Z,26.0257,-81.7332,0.93,30.2,1111122 
NERRS,ioos:station:NOAA.NERRS:rkblhwq:1,2015-08-13T01:45:00Z,26.0257,-81.7332,1.05,30.4,1111122 
NERRS,ioos:station:NOAA.NERRS:rkblhwq:1,2015-08-13T02:45:00Z,26.0257,-81.7332,1.19,30.8,1111122 
NERRS,ioos:station:NOAA.NERRS:rkblhwq:1,2015-08-13T03:45:00Z,26.0257,-81.7332,1.35,31.2,1111122 
NERRS,ioos:station:NOAA.NERRS:rkblhwq:1,2015-08-13T04:45:00Z,26.0257,-81.7332,1.52,31.3,1111122 
NERRS,ioos:station:NOAA.NERRS:rkblhwq:1,2015-08-13T05:45:00Z,26.0257,-81.7332,1.62,31.4,1111122 
NERRS,ioos:station:NOAA.NERRS:rkblhwq:1,2015-08-13T07:45:00Z,26.0257,-81.7332,1.56,31.2,1111122 
NERRS,ioos:station:NOAA.NERRS:rkblhwq:1,2015-08-13T08:45:00Z,26.0257,-81.7332,1.44,30.8,1111122 
NERRS,ioos:station:NOAA.NERRS:rkblhwq:1,2015-08-13T09:45:00Z,26.0257,-81.7332,1.32,30.7,1111122 
NERRS,ioos:station:NOAA.NERRS:rkblhwq:1,2015-08-13T10:45:00Z,26.0257,-81.7332,1.23,30.7,1111122 
NERRS,ioos:station:NOAA.NERRS:rkblhwq:1,2015-08-13T11:45:00Z,26.0257,-81.7332,1.18,30.6,1111122 
NERRS,ioos:station:NOAA.NERRS:rkblhwq:1,2015-08-13T12:45:00Z,26.0257,-81.7332,1.25,30.5,1111122 
NERRS,ioos:station:NOAA.NERRS:rkblhwq:1,2015-08-13T13:45:00Z,26.0257,-81.7332,1.39,30.8,1111122 
NERRS,ioos:station:NOAA.NERRS:rkblhwq:1,2015-08-13T14:45:00Z,26.0257,-81.7332,1.54,31.1,1111122 
NERRS,ioos:station:NOAA.NERRS:rkblhwq:1,2015-08-13T15:45:00Z,26.0257,-81.7332,1.67,31.4,1111122 
NERRS,ioos:station:NOAA.NERRS:rkblhwq:1,2015-08-13T16:45:00Z,26.0257,-81.7332,1.76,31.6,1111122 
NERRS,ioos:station:NOAA.NERRS:rkblhwq:1,2015-08-13T17:45:00Z,26.0257,-81.7332,1.78,31.7,1111122 
NERRS,ioos:station:NOAA.NERRS:rkblhwq:1,2015-08-13T18:45:00Z,26.0257,-81.7332,1.72,31.7,1111122 
NERRS,ioos:station:NOAA.NERRS:rkblhwq:1,2015-08-13T19:45:00Z,26.0257,-81.7332,1.6,31.8,1111122 
NERRS,ioos:station:NOAA.NERRS:rkblhwq:1,2015-08-13T20:45:00Z,26.0257,-81.7332,1.45,31.5,1111122 
NERRS,ioos:station:NOAA.NERRS:rkblhwq:1,2015-08-13T21:45:00Z,26.0257,-81.7332,1.29,31.1,1111122 
NERRS,ioos:station:NOAA.NERRS:rkblhwq:1,2015-08-13T22:45:00Z,26.0257,-81.7332,1.14,30.8,1111122 
NERRS,ioos:station:NOAA.NERRS:rkblhwq:1,2015-08-13T23:45:00Z,26.0257,-81.7332,1.01,30.6,1111122 
NERRS,ioos:station:NOAA.NERRS:rkblhwq:1,2015-08-14T00:45:00Z,26.0257,-81.7332,0.91,30.6,1111122 
NERRS,ioos:station:NOAA.NERRS:rkblhwq:1,2015-08-14T01:45:00Z,26.0257,-81.7332,0.94,30.4,1111122 